timestamp,surface_pressure_avg,surface_temp_avg,battery_voltage,lat,long
2017-12-22 00:00:00+00:00,302.6946,4.2,12.57,47.84626,-54.09684
2017-12-22 00:10:00+00:00,305.7763,4.26,12.57,47.84626,-54.09684
2017-12-22 00:20:00+00:00,310.8497,4.29,12.57,47.84626,-54.09684
2017-12-22 00:30:00+00:00,317.7296,4.3,12.57,47.84626,-54.09684
2017-12-22 00:40:00+00:00,320.848,4.3,12.65,47.84626,-54.09684
2017-12-22 00:50:00+00:00,322.008,4.3,12.65,47.84626,-54.09684
2017-12-22 01:00:00+00:00,325.9563,4.3,12.57,47.84626,-54.09684
2017-12-22 01:10:00+00:00,331.7347,4.3,12.57,47.84626,-54.09684
2017-12-22 01:20:00+00:00,335.918,4.3,12.57,47.84626,-54.09684
2017-12-22 01:30:00+00:00,337.2897,4.3,12.57,47.84626,-54.09684
2017-12-22 01:40:00+00:00,339.0229,4.3,12.57,47.84626,-54.09684
2017-12-22 01:50:00+00:00,340.988,4.3,12.57,47.84626,-54.09684
2017-12-22 02:00:00+00:00,340.3097,4.29,12.57,47.84626,-54.09684
2017-12-22 02:10:00+00:00,340.4612,4.28,12.57,47.84626,-54.09684
2017-12-22 02:20:00+00:00,341.4163,4.2,12.57,47.84626,-54.09684
2017-12-22 02:30:00+00:00,337.7646,4.2,12.57,47.84626,-54.09684
2017-12-22 02:40:00+00:00,333.8796,4.2,12.57,47.84626,-54.09684
2017-12-22 02:50:00+00:00,334.6462,4.2,12.57,47.84626,-54.09684
2017-12-22 03:00:00+00:00,334.983,4.17,12.57,47.84626,-54.09684
2017-12-22 03:10:00+00:00,331.463,4.1,12.49,47.84626,-54.09684
2017-12-22 03:20:00+00:00,329.7747,4.1,12.57,47.84626,-54.09684
2017-12-22 03:30:00+00:00,328.7996,4.07,12.57,47.84626,-54.09684
2017-12-22 03:40:00+00:00,321.973,4.08,12.57,47.84626,-54.09684
2017-12-22 03:50:00+00:00,318.9396,4.09,12.57,47.84626,-54.09684
2017-12-22 04:00:00+00:00,315.9514,4.1,12.57,47.84626,-54.09684
2017-12-22 04:10:00+00:00,311.1614,4.06,12.49,47.84626,-54.09684
2017-12-22 04:20:00+00:00,302.7247,4.0,12.57,47.84626,-54.09684
2017-12-22 04:30:00+00:00,297.763,3.9,12.57,47.84626,-54.09684
2017-12-22 04:40:00+00:00,293.613,3.9,12.57,47.84626,-54.09684
2017-12-22 04:50:00+00:00,286.4914,3.9,12.57,47.84626,-54.09684
2017-12-22 05:00:00+00:00,274.4514,3.89,12.57,47.84626,-54.09684
2017-12-22 05:10:00+00:00,266.823,3.85,12.49,47.84626,-54.09684
2017-12-22 05:20:00+00:00,263.8698,3.88,12.57,47.84626,-54.09684
2017-12-22 05:30:00+00:00,258.1081,3.89,12.57,47.84626,-54.09684
2017-12-22 05:40:00+00:00,249.4414,3.8,12.57,47.84626,-54.09684
2017-12-22 05:50:00+00:00,242.0948,3.8,12.57,47.84626,-54.09684
2017-12-22 06:00:00+00:00,236.4981,3.79,12.57,47.84626,-54.09684
2017-12-22 06:10:00+00:00,231.8564,3.7,12.49,47.84626,-54.09684
2017-12-22 06:20:00+00:00,228.0681,3.7,12.57,47.84626,-54.09684
2017-12-22 06:30:00+00:00,224.9931,3.7,12.57,47.84626,-54.09684
2017-12-22 06:40:00+00:00,224.4431,3.7,12.57,47.84626,-54.09684
2017-12-22 06:50:00+00:00,222.3864,3.67,12.57,47.84626,-54.09684
2017-12-22 07:00:00+00:00,217.5681,3.61,12.49,47.84626,-54.09684
2017-12-22 07:10:00+00:00,215.4198,3.6,12.49,47.84626,-54.09684
2017-12-22 07:20:00+00:00,217.5198,3.4,12.57,47.84626,-54.09684
2017-12-22 07:30:00+00:00,214.0948,3.3,12.57,47.84626,-54.09684
2017-12-22 07:40:00+00:00,209.6797,3.2,12.57,47.84626,-54.09684
2017-12-22 07:50:00+00:00,213.6164,3.1,12.57,47.84626,-54.09684
2017-12-22 08:00:00+00:00,217.1548,3.1,12.49,47.84626,-54.09684
2017-12-22 08:10:00+00:00,215.5797,3.1,12.49,47.84626,-54.09684
2017-12-22 08:20:00+00:00,216.5931,3.09,12.57,47.84626,-54.09684
2017-12-22 08:30:00+00:00,223.7231,3.1,12.57,47.84626,-54.09684
2017-12-22 08:40:00+00:00,228.6314,3.17,12.57,47.84626,-54.09684
2017-12-22 08:50:00+00:00,228.2848,3.2,12.57,47.84626,-54.09684
2017-12-22 09:00:00+00:00,230.4848,3.16,12.49,47.84626,-54.09684
2017-12-22 09:10:00+00:00,236.0181,3.3,12.49,47.84626,-54.09684
2017-12-22 09:20:00+00:00,241.6698,3.3,12.57,47.84626,-54.09684
2017-12-22 09:30:00+00:00,246.6981,3.3,12.57,47.84626,-54.09684
2017-12-22 09:40:00+00:00,253.3581,3.22,12.57,47.84626,-54.09684
2017-12-22 09:50:00+00:00,258.9014,3.22,12.57,47.84626,-54.09684
2017-12-22 10:00:00+00:00,260.2798,3.28,12.49,47.84626,-54.09684
2017-12-22 10:10:00+00:00,263.4331,3.3,12.49,47.84626,-54.09684
2017-12-22 10:20:00+00:00,270.2747,3.36,12.57,47.84626,-54.09684
2017-12-22 10:30:00+00:00,279.798,3.46,12.57,47.84626,-54.09684
2017-12-22 10:40:00+00:00,286.9464,3.5,12.57,47.84626,-54.09684
2017-12-22 10:50:00+00:00,292.043,3.24,12.57,47.84626,-54.09684
2017-12-22 11:00:00+00:00,295.403,3.1,12.49,47.84626,-54.09684
2017-12-22 11:10:00+00:00,300.6114,3.1,12.49,47.84626,-54.09684
2017-12-22 11:20:00+00:00,304.4997,3.1,12.57,47.84626,-54.09684
2017-12-22 11:30:00+00:00,309.958,3.12,12.57,47.84626,-54.09684
2017-12-22 11:40:00+00:00,312.9264,3.16,12.57,47.84626,-54.09684
2017-12-22 11:50:00+00:00,315.9529,3.18,12.57,47.84626,-54.09684
2017-12-22 12:00:00+00:00,320.1697,3.2,12.49,47.84626,-54.09684
2017-12-22 12:10:00+00:00,327.8013,3.2,12.49,47.84626,-54.09684
2017-12-22 12:20:00+00:00,335.2764,3.3,12.57,47.84626,-54.09684
2017-12-22 12:30:00+00:00,339.9913,3.3,12.57,47.84626,-54.09684
2017-12-22 12:40:00+00:00,346.7178,3.3,12.57,47.84626,-54.09684
2017-12-22 12:50:00+00:00,355.8546,3.38,12.57,47.84626,-54.09684
2017-12-22 13:00:00+00:00,358.3096,3.71,12.57,47.84626,-54.09684
2017-12-22 13:10:00+00:00,361.7463,3.7,12.57,47.84626,-54.09684
2017-12-22 13:20:00+00:00,364.8213,3.6,12.65,47.84626,-54.09684
2017-12-22 13:30:00+00:00,366.728,3.89,12.65,47.84626,-54.09684
2017-12-22 13:40:00+00:00,367.0812,3.8,12.65,47.84626,-54.09684
2017-12-22 13:50:00+00:00,372.2213,3.85,12.65,47.84626,-54.09684
2017-12-22 14:00:00+00:00,378.4179,3.78,12.65,47.84626,-54.09684
2017-12-22 14:10:00+00:00,376.1996,3.5,12.57,47.84626,-54.09684
2017-12-22 14:20:00+00:00,373.6262,3.5,12.65,47.84626,-54.09684
2017-12-22 14:30:00+00:00,376.1879,3.6,12.65,47.84626,-54.09684
2017-12-22 14:40:00+00:00,377.5946,3.75,12.65,47.84626,-54.09684
2017-12-22 14:50:00+00:00,372.403,3.7,12.65,47.84626,-54.09684
2017-12-22 15:00:00+00:00,369.9996,3.78,12.65,47.84626,-54.09684
2017-12-22 15:10:00+00:00,371.4212,3.7,12.57,47.84626,-54.09684
2017-12-22 15:20:00+00:00,362.7996,3.6,12.65,47.84626,-54.09684
2017-12-22 15:30:00+00:00,352.5429,3.51,12.65,47.84626,-54.09684
2017-12-22 15:40:00+00:00,350.8713,4.05,12.81,47.84626,-54.09684
2017-12-22 15:50:00+00:00,347.253,4.1,12.97,47.84626,-54.09684
2017-12-22 16:00:00+00:00,338.4813,4.09,12.89,47.84626,-54.09684
2017-12-22 16:10:00+00:00,332.0847,4.1,12.81,47.84626,-54.09684
2017-12-22 16:20:00+00:00,330.9097,4.0,12.89,47.84626,-54.09684
2017-12-22 16:30:00+00:00,323.3563,3.8,12.97,47.84626,-54.09684
2017-12-22 16:40:00+00:00,312.6647,3.95,12.97,47.84626,-54.09684
2017-12-22 16:50:00+00:00,308.0431,4.1,13.13,47.84626,-54.09684
2017-12-22 17:00:00+00:00,302.518,4.16,12.97,47.84626,-54.09684
2017-12-22 17:10:00+00:00,291.123,4.19,12.89,47.84626,-54.09684
2017-12-22 17:20:00+00:00,283.533,4.1,12.97,47.84626,-54.09684
2017-12-22 17:30:00+00:00,277.8981,4.1,12.97,47.84626,-54.09684
2017-12-22 17:40:00+00:00,268.1447,4.1,13.29,47.84626,-54.09684
2017-12-22 17:50:00+00:00,258.2181,4.0,13.44,47.84626,-54.09684
2017-12-22 18:00:00+00:00,252.0214,4.0,13.37,47.84626,-54.09684
2017-12-22 18:10:00+00:00,242.5114,4.07,13.29,47.84626,-54.09684
2017-12-22 18:20:00+00:00,232.8614,4.17,13.29,47.84626,-54.09684
2017-12-22 18:30:00+00:00,229.5314,4.2,13.05,47.84626,-54.09684
2017-12-22 18:40:00+00:00,227.4331,4.2,13.05,47.84626,-54.09684
2017-12-22 18:50:00+00:00,217.6798,4.2,12.97,47.84626,-54.09684
2017-12-22 19:00:00+00:00,212.0631,4.2,12.89,47.84626,-54.09684
2017-12-22 19:10:00+00:00,209.8998,4.26,12.81,47.84626,-54.09684
2017-12-22 19:20:00+00:00,204.0798,4.3,12.89,47.84626,-54.09684
2017-12-22 19:30:00+00:00,200.7998,4.3,12.89,47.84626,-54.09684
2017-12-22 19:40:00+00:00,200.6731,4.3,12.89,47.84626,-54.09684
2017-12-22 19:50:00+00:00,198.3748,4.3,12.89,47.84626,-54.09684
2017-12-22 20:00:00+00:00,197.8481,4.3,12.81,47.84626,-54.09684
2017-12-22 20:10:00+00:00,200.3232,4.3,12.73,47.84626,-54.09684
2017-12-22 20:20:00+00:00,201.2165,4.3,12.81,47.84626,-54.09684
2017-12-22 20:30:00+00:00,202.4048,4.3,12.81,47.84626,-54.09684
2017-12-22 20:40:00+00:00,208.3114,4.3,12.81,47.84626,-54.09684
2017-12-22 20:50:00+00:00,212.3348,4.3,12.81,47.84626,-54.09684
2017-12-22 21:00:00+00:00,211.9598,4.3,12.73,47.84626,-54.09684
2017-12-22 21:10:00+00:00,215.1048,4.3,12.73,47.84626,-54.09684
2017-12-22 21:20:00+00:00,222.3347,4.3,12.73,47.84626,-54.09684
2017-12-22 21:30:00+00:00,226.6848,4.3,12.73,47.84626,-54.09684
2017-12-22 21:40:00+00:00,228.3815,4.3,12.73,47.84626,-54.09684
2017-12-22 21:50:00+00:00,234.8664,4.28,12.73,47.84626,-54.09684
2017-12-22 22:00:00+00:00,241.1648,4.2,12.73,47.84626,-54.09684
2017-12-22 22:10:00+00:00,241.4931,4.1,12.65,47.84626,-54.09684
2017-12-22 22:20:00+00:00,243.3464,4.0,12.73,47.84626,-54.09684
2017-12-22 22:30:00+00:00,251.0981,4.0,12.73,47.84626,-54.09684
2017-12-22 22:40:00+00:00,255.9714,3.9,12.73,47.84626,-54.09684
2017-12-22 22:50:00+00:00,258.5064,3.9,12.73,47.84626,-54.09684
2017-12-22 23:00:00+00:00,261.6614,3.8,12.65,47.84626,-54.09684
2017-12-22 23:10:00+00:00,267.7097,3.7,12.65,47.84626,-54.09684
2017-12-22 23:20:00+00:00,269.0014,3.6,12.73,47.84626,-54.09684
2017-12-22 23:30:00+00:00,269.318,3.5,12.65,47.84626,-54.09684
2017-12-22 23:40:00+00:00,273.2164,3.5,12.73,47.84626,-54.09684
2017-12-22 23:50:00+00:00,280.228,3.49,12.73,47.84626,-54.09684
